Location: Stoke Bliss
(52.2667°N, 2.5167°W)
Time: 12:34:52
(UTC+00:00)

Envisat - Pass Details

Date: 10 December 2021
Orbit: 764 x 766 km, 98.2° (Epoch: 23 January)

Event Time Altitude Azimuth Distance (km) Brightness Sun altitude
Rises 06:45:40 0° 7° (N) 3,248 6.1 -11.7°
Reaches altitude 10° 06:48:20 10° 355° (N) 2,317 5.2 -11.4°
Maximum altitude 06:52:23 25° 302° (WNW) 1,531 4.0 -10.8°
Drops below altitude 10° 06:56:26 10° 249° (WSW) 2,304 5.1 -10.2°
Sets 06:59:05 0° 236° (SW) 3,226 5.9 -9.9°
